Location: DaVinci Observatory
(43.1080°N, 78.6453°W)
Time: 04:20:27
(UTC-04:00)

Vanguard 2 Rocket - All Passes

Search period start: 22 October 2017 00:00
Search period end: 01 November 2017 00:00
Orbit: 555 x 3327 km, 32.9° (Epoch: 21 October)

Date Brightness Start Highest point End Pass type
(mag) Time Alt. Az. Time Alt. Az. Time Alt. Az.
22 Oct - 11:53:19 10° S 11:56:21 16° SSE 12:00:09 10° ESE daylight
22 Oct - 14:03:01 10° WSW 14:08:24 38° S 14:17:14 10° ESE daylight
22 Oct - 16:14:38 10° WSW 16:21:55 39° S 16:34:02 10° SE daylight
22 Oct - 18:28:09 10° WSW 18:36:35 25° SSW 18:48:32 10° SSE visible
23 Oct - 13:04:50 10° SW 13:09:19 30° SSE 13:16:05 10° ESE daylight
23 Oct - 15:15:58 10° WSW 15:22:13 39° S 15:32:38 10° ESE daylight
23 Oct - 17:28:37 10° WSW 17:36:22 28° SSW 17:48:04 10° SSE daylight
23 Oct - 19:46:28 10° SW 19:51:19 12° SSW 19:56:53 10° SSW visible
24 Oct - 12:06:54 10° SSW 12:10:27 22° SSE 12:15:10 10° ESE daylight
24 Oct - 14:17:29 10° WSW 14:22:48 37° S 14:31:24 10° ESE daylight
24 Oct - 16:29:31 10° WSW 16:36:23 31° SSW 16:47:13 10° SE daylight
24 Oct - 18:44:34 10° WSW 18:50:59 16° SSW 18:59:09 10° S visible
25 Oct - 11:09:31 10° S 11:11:43 14° SSE 11:14:12 10° ESE daylight
25 Oct - 13:19:09 10° SW 13:23:39 32° S 13:30:27 10° ESE daylight
25 Oct - 15:30:44 10° WSW 15:36:41 33° S 15:46:14 10° SE daylight
25 Oct - 17:44:18 10° WSW 17:50:50 20° SSW 17:59:47 10° SSE daylight
26 Oct - 12:20:58 10° SW 12:24:42 26° SSE 12:29:48 10° ESE daylight
26 Oct - 14:32:08 10° WSW 14:37:15 33° S 14:45:20 10° SE daylight
26 Oct - 16:44:48 10° WSW 16:50:53 23° SSW 16:59:44 10° SSE daylight
27 Oct - 11:22:59 10° SSW 11:25:54 18° SSE 11:29:23 10° ESE daylight
27 Oct - 13:33:42 10° WSW 13:38:04 31° S 13:44:37 10° ESE daylight
27 Oct - 15:45:46 10° WSW 15:51:12 25° SSW 15:59:20 10° SE daylight
27 Oct - 18:01:58 10° SW 18:05:20 12° SSW 18:09:14 10° S daylight
28 Oct - 10:25:27 10° S 10:27:07 12° SSE 10:28:52 10° SE daylight
28 Oct - 12:35:19 10° SW 12:39:04 27° S 12:44:12 10° ESE daylight
28 Oct - 14:47:00 10° WSW 14:51:46 26° S 14:58:53 10° SE daylight
28 Oct - 17:01:05 10° SW 17:05:26 15° SSW 17:10:56 10° S daylight
29 Oct - 11:37:01 10° SW 11:40:13 22° SSE 11:44:05 10° ESE daylight
29 Oct - 13:48:24 10° WSW 13:52:32 26° S 13:58:31 10° SE daylight
29 Oct - 16:01:24 10° SW 16:05:45 17° SSW 16:11:33 10° SSE daylight
30 Oct - 10:38:48 10° SSW 10:41:24 17° SSE 10:44:12 10° ESE daylight
30 Oct - 12:49:53 10° WSW 12:53:31 25° S 12:58:23 10° SE daylight
30 Oct - 15:02:16 10° WSW 15:06:18 19° SSW 15:11:48 10° SSE daylight
31 Oct - 09:40:46 10° S 09:42:34 13° SSE 09:44:20 10° SE daylight
31 Oct - 11:51:23 10° SW 11:54:36 23° S 11:58:31 10° ESE daylight
31 Oct - 14:03:24 10° WSW 14:07:04 20° S 14:11:57 10° SE daylight
